Location: Unspecified
(0.0000°N, 0.0000°E)
Time: 13:46:17
(UTC+02:00)

Ariane H10 - Visible Passes

Search period start: 04 August 2015 00:00
Search period end: 14 August 2015 00:00
Orbit: 437 x 35068 km, 4.3° (Epoch: 02 August)

Date Brightness Start Highest point End Pass type
(mag) Time Alt. Az. Time Alt. Az. Time Alt. Az.
04 Aug 4.9 06:18:55 12° W 15:42:33 69° S 15:47:29 10° ESE visible
05 Aug 7.2 03:03:00 78° WNW 03:17:56 84° N 12:21:46 10° E visible
05 Aug 4.8 23:07:05 10° W 23:14:17 86° N 08:47:14 10° E visible
06 Aug 1.9 19:42:13 10° WSW 19:44:52 60° S 19:49:50 10° E visible
07 Aug 4.3 07:01:11 10° W 16:17:33 63° S 16:21:26 10° ESE visible
08 Aug 6.8 03:37:28 65° WNW 12:41:16 84° S 12:56:17 10° E visible
08 Aug 5.3 23:41:11 10° W 00:21:38 40° E 09:24:49 10° E visible
09 Aug 2.3 20:16:24 10° W 20:19:19 74° S 20:27:44 10° E visible
10 Aug 3.5 07:54:57 10° W 16:52:16 56° S 16:55:24 10° ESE visible
11 Aug 6.3 04:12:08 53° W 13:19:37 81° S 13:30:34 10° E visible
12 Aug 5.8 00:15:24 10° W 00:56:21 52° E 10:01:17 10° E visible
12 Aug 3.0 20:50:23 10° W 20:53:53 85° S 21:06:14 13° E visible
12 Aug 3.0 20:50:23 10° W 20:53:53 85° S 21:06:07 13° E visible
